Location: Hohenfelde
(53.8441°N, 9.6220°E)
Time: 12:31:56
(UTC+00:00)

SL-08 R/B - Pass Details

Date: 14 July 2020
Orbit: 674 x 739 km, 98.4° (Epoch: 13 August)

Event Time Altitude Azimuth Distance (km) Brightness Sun altitude
Rises 01:23:40 0° 149° (SSE) 3,081 6.3 -10.5°
Reaches altitude 10° 01:25:55 10° 145° (SE) 2,177 5.6 -10.3°
Maximum altitude 01:30:35 56° 68° (ENE) 857 4.1 -10.0°
Drops below altitude 10° 01:35:22 10° 351° (N) 2,232 6.7 -9.6°
Sets 01:37:42 0° 347° (NNW) 3,166 7.5 -9.5°
